Flag for Norway Weather past 2 weeks in Hamar, Norway

Now
33 °F

Chilly.


Feels Like: 33 °F
Forecast: 33 / 57 °F
Wind: 2 mph from Northeast

Location: Haugedalshogda

Current Time: Apr 18, 2015 at 7:47:02 AM

Latest Report: Apr 18, 2015 at 7:00 AM


Visibility: N/A

Pressure: 30.34 "Hg

Humidity: 81%

Dew point: 28 °F

Location of HamarLocation

Historic Weather in Hamar — Graph

°F

Hamar temperature yesterday

Maximum temperature yesterday: 49 °F (at 5:00 PM)
Minimum temperature yesterday: 33 °F (at 11:00 PM)
Average temperature yesterday: 43 °F

Past Weeks' High & Low Weather Summary

 TemperatureHumidityPressure
High59 °F (Apr 10, 3:00 PM)96% (Apr 15, 3:00 AM)30.42 "Hg (Apr 15, 3:00 AM)
Low15 °F (Apr 5, 6:00 AM)21% (Apr 8, 5:00 PM)29.41 "Hg (Apr 15, 3:00 PM)
Average37 °F61%30.00 "Hg
* Reported Apr 3 6:00 AM — Apr 18 6:00 AM, Hamar, Weather by CustomWeather, © 2015

Note: Actual official high and low records may vary slightly from our data, if they occured in-between our weather recording intervals... More about our weather records

Advertising

Hamar weather history for previous 24 hours

 ConditionsComfort  
Time TempWeatherWind HumidityBarometerVisibility
6:00 AM
Sat, Apr 18
22 °FCold.1 mph94%30.36 "HgN/A
5:00 AM22 °FCold.1 mph94%30.37 "HgN/A
4:00 AM24 °FCold.No wind94%30.37 "HgN/A
3:00 AM23 °FCold.1 mph92%30.38 "HgN/A
2:00 AM26 °FChilly.1 mph94%30.36 "HgN/A
1:00 AM24 °FCold.1 mph90%30.35 "HgN/A
12:00 AM28 °FChilly.2 mph89%30.35 "HgN/A
11:00 PM
Fri, Apr 17
33 °FChilly.1 mph75%30.33 "HgN/A
10:00 PM40 °FChilly.2 mph61%30.29 "HgN/A
9:00 PM41 °FQuite cool.2 mph60%30.28 "HgN/A
8:00 PM46 °FCool.3 mph49%30.25 "HgN/A
7:00 PM46 °FCool.3 mph46%30.22 "HgN/A
6:00 PM47 °FCool.3 mph45%30.20 "HgN/A
5:00 PM49 °FCool.6 mph41%30.19 "HgN/A
4:00 PM47 °FCool.7 mph44%30.18 "HgN/A
3:00 PM47 °FCool.9 mph44%30.17 "HgN/A
2:00 PM48 °FCool.9 mph44%30.15 "HgN/A
1:00 PM47 °FCool.9 mph45%30.12 "HgN/A
12:00 PM46 °FCool.7 mph45%30.11 "HgN/A
11:00 AM46 °FCool.7 mph49%30.09 "HgN/A
10:00 AM44 °FQuite cool.10 mph55%30.07 "HgN/A
9:00 AM44 °FQuite cool.8 mph54%30.04 "HgN/A
8:00 AM41 °FQuite cool.8 mph59%30.01 "HgN/A
7:00 AM40 °FChilly.7 mph65%30.00 "HgN/A
Weather by CustomWeather, © 2015

See weather overviewHow to use our weather pages